Home   Weather   Uster   Past weeks

Flag for Switzerland Past Weather in Uster, Zurich, Switzerland — Yesterday and Last 2 Weeks

Now
33 °F

Chilly.


Feels Like: 33 °F
Forecast: 24 / 50 °F
Wind: 2 mph from Northwest

Location: Zuerich-Fluntern

Current Time: Apr 28, 2017 at 8:32:45 am

Latest Report: Apr 28, 2017 at 7:00 am


Visibility: N/A

Pressure: 29.94 "Hg

Humidity: 96%

Dew Point: 32 °F

Location of UsterLocation

Past Weather in Uster — Graph

°F

Uster Temperature Yesterday

Maximum temperature yesterday: 39 °F (at 4:00 pm)
Minimum temperature yesterday: 33 °F (at 10:00 pm)
Average temperature yesterday: 36 °F

High & Low Weather Summary for the Past Weeks

 TemperatureHumidityPressure
High66 °F (Apr 24, 5:00 pm)100% (Apr 26, 10:00 am)30.57 "Hg (Apr 26, 10:00 am)
Low28 °F (Apr 20, 6:00 am)26% (Apr 21, 6:00 pm)29.74 "Hg (Apr 26, 12:00 am)
Average44 °F71%30.14 "Hg
* Reported Apr 13 7:00 am — Apr 28 7:00 am, Uster, Weather by CustomWeather, © 2017

Note: Actual official high and low records may vary slightly from our data, if they occured in-between our weather recording intervals... More about our weather records

Advertising

Uster Weather History for the Previous 24 Hours

Scroll right to see more
 ConditionsComfort  
Time TempWeatherWind HumidityBarometerVisibility
7:00 am
Fri, Apr 28
33 °FChilly.2 mph96%29.94 "HgN/A
6:00 am33 °FChilly.1 mph98%29.93 "HgN/A
5:00 am32 °FChilly.1 mph99%29.94 "HgN/A
4:00 am32 °FChilly.No wind98%29.94 "HgN/A
3:00 am32 °FChilly.No wind99%29.95 "HgN/A
2:00 am32 °FChilly.No wind98%29.96 "HgN/A
1:00 am32 °FChilly.1 mph97%29.97 "HgN/A
12:00 am33 °FChilly.No wind98%29.98 "HgN/A
11:00 pm
Thu, Apr 27
33 °FChilly.2 mph95%29.99 "HgN/A
10:00 pm33 °FChilly.3 mph98%30.00 "HgN/A
9:00 pm35 °FChilly.3 mph96%29.98 "HgN/A
8:00 pm36 °FOvercast.3 mph95%29.98 "HgN/A
7:00 pm37 °FChilly.3 mph93%29.98 "HgN/A
6:00 pm37 °FChilly.2 mph95%29.98 "HgN/A
5:00 pm37 °FChilly.2 mph94%29.99 "HgN/A
4:00 pm39 °FChilly.2 mph91%29.98 "HgN/A
3:00 pm39 °FChilly.3 mph88%29.99 "HgN/A
2:00 pm39 °FOvercast.2 mph89%29.99 "HgN/A
1:00 pm38 °FChilly.2 mph91%30.00 "HgN/A
12:00 pm36 °FChilly.3 mph94%30.01 "HgN/A
11:00 am36 °FChilly.3 mph91%30.01 "HgN/A
10:00 am36 °FChilly.5 mph93%30.00 "HgN/A
9:00 am36 °FChilly.3 mph92%29.99 "HgN/A
8:00 am35 °FOvercast.2 mph95%29.99 "HgN/A
Weather by CustomWeather, © 2017

See weather overviewHow to use our weather pages